| time (UTC) | temp C | wind direction | speed KPH | gust KPH | rain 1hr cm | rain 24hr cm | rain mn cm | humidity % | barometer mb |
| 20260506132517 | 7 | 270 | 6.4 | 14.5 | 0.00 | 3.35 | 1.04 | 87 | 1010.2 |
| 20260506132017 | 7 | 315 | 4.8 | 12.9 | 0.00 | 3.35 | 1.04 | 88 | 1010.0 |
| 20260506131517 | 7 | 315 | 3.2 | 9.7 | 0.00 | 3.35 | 1.04 | 89 | 1010.0 |
| 20260506131037 | 7 | 293 | 3.2 | 8.0 | 0.00 | 3.35 | 1.04 | 88 | 1009.8 |
| 20260506130537 | 7 | 338 | 1.6 | 6.4 | 0.00 | 3.35 | 1.04 | 90 | 1009.7 |
| 20260506130016 | 7 | 315 | 6.4 | 16.1 | 0.00 | 3.35 | 1.04 | 88 | 1009.8 |
| 20260506125517 | 7 | 293 | 1.6 | 4.8 | 0.00 | 3.35 | 1.04 | 89 | 1009.5 |
| 20260506125017 | 7 | 338 | 3.2 | 6.4 | 0.00 | 3.35 | 1.04 | 90 | 1009.4 |
| 20260506124517 | 7 | 338 | 3.2 | 8.0 | 0.00 | 3.35 | 1.04 | 89 | 1009.4 |
| 20260506124016 | 7 | 315 | 1.6 | 8.0 | 0.00 | 3.35 | 1.04 | 90 | 1009.4 |
| 20260506123517 | 7 | 315 | 6.4 | 16.1 | 0.00 | 3.35 | 1.04 | 90 | 1009.3 |
| 20260506123036 | 7 | 338 | 3.2 | 8.0 | 0.00 | 3.35 | 1.04 | 91 | 1009.1 |
| 20260506122517 | 7 | 270 | 3.2 | 8.0 | 0.00 | 3.35 | 1.04 | 91 | 1009.1 |
| 20260506122017 | 7 | 315 | 4.8 | 11.3 | 0.00 | 3.35 | 1.04 | 91 | 1009.1 |
| 20260506121517 | 7 | 338 | 3.2 | 14.5 | 0.00 | 3.35 | 1.04 | 91 | 1009.0 |
| 20260506121017 | 6 | 338 | 4.8 | 9.7 | 0.00 | 3.35 | 1.04 | 91 | 1008.9 |
| 20260506120517 | 6 | 315 | 1.6 | 8.0 | 0.00 | 3.35 | 1.04 | 92 | 1008.9 |
| 20260506120017 | 6 | 315 | 1.6 | 4.8 | 0.00 | 3.35 | 1.04 | 92 | 1009.1 |
| 20260506115517 | 6 | 315 | 3.2 | 4.8 | 0.00 | 3.35 | 1.04 | 92 | 1009.1 |
| 20260506115017 | 6 | 315 | 1.6 | 4.8 | 0.00 | 3.35 | 1.04 | 92 | 1009.1 |
| 20260506114516 | 6 | 315 | 1.6 | 6.4 | 0.00 | 3.35 | 1.04 | 92 | 1009.0 |
| 20260506114017 | 6 | 315 | 3.2 | 8.0 | 0.00 | 3.35 | 1.04 | 92 | 1009.3 |
| 20260506113517 | 6 | 23 | 3.2 | 6.4 | 0.00 | 3.35 | 1.04 | 92 | 1009.2 |
| 20260506113017 | 6 | 23 | 1.6 | 6.4 | 0.00 | 3.35 | 1.04 | 92 | 1008.9 |
| 20260506112517 | 6 | 315 | 3.2 | 8.0 | 0.00 | 3.35 | 1.04 | 92 | 1008.8 |
| 20260506112017 | 6 | 338 | 1.6 | 6.4 | 0.00 | 3.35 | 1.04 | 91 | 1008.6 |
| 20260506111537 | 6 | 293 | 3.2 | 8.0 | 0.00 | 3.35 | 1.04 | 92 | 1008.4 |
| 20260506111017 | 6 | 315 | 4.8 | 12.9 | 0.00 | 3.35 | 1.04 | 92 | 1008.5 |
| 20260506110516 | 6 | 315 | 3.2 | 11.3 | 0.00 | 3.35 | 1.04 | 93 | 1008.9 |
| 20260506110017 | 6 | 293 | 3.2 | 8.0 | 0.00 | 3.35 | 1.04 | 92 | 1008.8 |
| 20260506105516 | 6 | 338 | 3.2 | 9.7 | 0.00 | 3.35 | 1.04 | 92 | 1008.5 |
| 20260506105016 | 6 | 315 | 4.8 | 14.5 | 0.00 | 3.35 | 1.04 | 93 | 1008.2 |
| 20260506104516 | 6 | 315 | 4.8 | 9.7 | 0.00 | 3.35 | 1.04 | 93 | 1008.4 |
| 20260506104016 | 6 | 315 | 4.8 | 14.5 | 0.00 | 3.35 | 1.04 | 93 | 1008.3 |
| 20260506103516 | 6 | 315 | 4.8 | 12.9 | 0.00 | 3.35 | 1.04 | 93 | 1008.2 |
| 20260506103016 | 6 | 315 | 3.2 | 8.0 | 0.03 | 3.35 | 1.04 | 93 | 1007.6 |
| 20260506102517 | 6 | 338 | 1.6 | 4.8 | 0.03 | 3.35 | 1.04 | 93 | 1007.4 |
| 20260506102016 | 6 | 338 | 3.2 | 6.4 | 0.03 | 3.35 | 1.04 | 93 | 1007.6 |
| 20260506101537 | 6 | 45 | 1.6 | 4.8 | 0.05 | 3.35 | 1.04 | 93 | 1007.6 |
| 20260506101016 | 6 | 68 | 1.6 | 4.8 | 0.05 | 3.35 | 1.04 | 93 | 1007.3 |
| 20260506100516 | 6 | 45 | 1.6 | 8.0 | 0.08 | 3.35 | 1.04 | 93 | 1007.1 |
| 20260506100017 | 6 | 45 | 1.6 | 4.8 | 0.08 | 3.35 | 1.04 | 93 | 1006.9 |
| 20260506095517 | 6 | 0.0 | 3.2 | 0.10 | 3.35 | 1.04 | 93 | 1007.1 | |
| 20260506095016 | 6 | 0 | 1.6 | 8.0 | 0.10 | 3.35 | 1.04 | 93 | 1007.3 |
| 20260506094537 | 6 | 68 | 1.6 | 6.4 | 0.10 | 3.35 | 1.04 | 93 | 1007.4 |
| 20260506094017 | 6 | 338 | 1.6 | 3.2 | 0.10 | 3.35 | 1.04 | 93 | 1007.6 |
| 20260506093516 | 6 | 338 | 1.6 | 4.8 | 0.10 | 3.35 | 1.04 | 93 | 1008.0 |
| 20260506093016 | 6 | 338 | 3.2 | 8.0 | 0.08 | 3.33 | 1.02 | 93 | 1008.2 |
| 20260506092516 | 6 | 338 | 1.6 | 8.0 | 0.08 | 3.33 | 1.02 | 93 | 1008.3 |
| 20260506092037 | 6 | 338 | 3.2 | 6.4 | 0.08 | 3.33 | 1.02 | 93 | 1008.1 |
| 20260506091516 | 6 | 315 | 1.6 | 6.4 | 0.08 | 3.30 | 0.99 | 93 | 1008.0 |
| 20260506091016 | 6 | 315 | 1.6 | 6.4 | 0.08 | 3.30 | 0.99 | 93 | 1008.0 |
| 20260506090516 | 6 | 315 | 1.6 | 6.4 | 0.05 | 3.28 | 0.97 | 93 | 1008.0 |
| 20260506090056 | 6 | 0.0 | 3.2 | 0.08 | 3.28 | 0.97 | 93 | 1007.8 | |
| 20260506085516 | 6 | 315 | 1.6 | 4.8 | 0.08 | 3.25 | 0.94 | 93 | 1008.1 |
| 20260506085017 | 6 | 315 | 1.6 | 4.8 | 0.10 | 3.25 | 0.94 | 93 | 1008.0 |
| 20260506084536 | 6 | 315 | 3.2 | 8.0 | 0.13 | 3.25 | 0.94 | 93 | 1007.9 |
| 20260506084017 | 6 | 315 | 3.2 | 8.0 | 0.18 | 3.25 | 0.94 | 92 | 1007.8 |
| 20260506083517 | 6 | 0 | 3.2 | 9.7 | 0.20 | 3.25 | 0.94 | 92 | 1007.6 |
| 20260506083036 | 6 | 0 | 3.2 | 8.0 | 0.23 | 3.25 | 0.94 | 92 | 1007.7 |
| 20260506082516 | 6 | 0 | 1.6 | 6.4 | 0.25 | 3.25 | 0.94 | 92 | 1007.7 |
| 20260506082016 | 6 | 338 | 3.2 | 6.4 | 0.28 | 3.25 | 0.94 | 92 | 1007.8 |
| 20260506081517 | 6 | 23 | 3.2 | 8.0 | 0.25 | 3.23 | 0.91 | 91 | 1007.9 |
| 20260506081016 | 6 | 338 | 3.2 | 12.9 | 0.28 | 3.23 | 0.91 | 91 | 1007.8 |
| 20260506080536 | 6 | 293 | 3.2 | 11.3 | 0.30 | 3.23 | 0.91 | 91 | 1007.8 |
| 20260506073516 | 6 | 293 | 4.8 | 12.9 | 0.28 | 3.05 | 0.74 | 93 | 1008.0 |
| 20260506073016 | 6 | 338 | 3.2 | 12.9 | 0.28 | 3.02 | 0.71 | 93 | 1007.9 |
| 20260506072516 | 6 | 338 | 4.8 | 12.9 | 0.25 | 3.00 | 0.69 | 92 | 1007.7 |
| 20260506072016 | 6 | 315 | 3.2 | 8.0 | 0.25 | 2.97 | 0.66 | 92 | 1007.6 |
| 20260506071516 | 6 | 315 | 3.2 | 8.0 | 0.25 | 2.97 | 0.66 | 93 | 1007.5 |
| 20260506071016 | 6 | 23 | 1.6 | 6.4 | 0.25 | 2.95 | 0.64 | 93 | 1007.5 |
| 20260506070516 | 6 | 338 | 1.6 | 4.8 | 0.23 | 2.92 | 0.61 | 93 | 1007.4 |
| 20260506062516 | 6 | 0 | 1.6 | 4.8 | 0.18 | 2.74 | 0.43 | 92 | 1007.5 |
| 20260506062036 | 6 | 0 | 1.6 | 4.8 | 0.18 | 2.72 | 0.41 | 91 | 1007.4 |
| 20260506061516 | 6 | 315 | 3.2 | 9.7 | 0.18 | 2.72 | 0.41 | 91 | 1007.5 |
| 20260506061016 | 6 | 23 | 1.6 | 6.4 | 0.18 | 2.69 | 0.38 | 91 | 1007.6 |
| 20260506060516 | 7 | 338 | 3.2 | 11.3 | 0.18 | 2.69 | 0.38 | 90 | 1007.7 |
| 20260506051016 | 7 | 315 | 3.2 | 6.4 | 0.18 | 2.51 | 0.20 | 91 | 1008.1 |
| 20260506050516 | 7 | 338 | 3.2 | 11.3 | 0.18 | 2.51 | 0.20 | 90 | 1008.2 |
| 20260506045016 | 8 | 45 | 1.6 | 8.0 | 0.20 | 2.49 | 0.18 | 92 | 1008.3 |
| 20260506044536 | 8 | 23 | 3.2 | 9.7 | 0.18 | 2.46 | 0.15 | 92 | 1008.2 |
| 20260506044016 | 8 | 45 | 3.2 | 6.4 | 0.18 | 2.44 | 0.13 | 92 | 1008.5 |
| 20260506043516 | 8 | 23 | 1.6 | 6.4 | 0.20 | 2.44 | 0.13 | 92 | 1008.4 |
| 20260506043016 | 8 | 23 | 3.2 | 6.4 | 0.18 | 2.41 | 0.10 | 92 | 1008.4 |
| 20260506042516 | 8 | 23 | 1.6 | 4.8 | 0.18 | 2.39 | 0.08 | 91 | 1008.7 |
| 20260506042016 | 8 | 23 | 1.6 | 14.5 | 0.15 | 2.36 | 0.05 | 91 | 1008.5 |
| 20260506041516 | 8 | 270 | 1.6 | 4.8 | 0.18 | 2.36 | 0.05 | 92 | 1008.6 |
| 20260506041016 | 8 | 45 | 1.6 | 6.4 | 0.15 | 2.34 | 0.03 | 92 | 1008.6 |
| 20260506040516 | 8 | 0 | 1.6 | 6.4 | 0.18 | 2.34 | 0.03 | 92 | 1008.6 |
| 20260506040016 | 8 | 0 | 1.6 | 4.8 | 0.15 | 2.31 | 2.31 | 92 | 1008.6 |
| 20260506035516 | 8 | 0 | 1.6 | 6.4 | 0.18 | 2.31 | 2.31 | 92 | 1008.7 |
| 20260506035016 | 8 | 0 | 1.6 | 6.4 | 0.15 | 2.29 | 2.29 | 92 | 1008.8 |
| 20260506034516 | 8 | 0 | 3.2 | 4.8 | 0.15 | 2.29 | 2.29 | 92 | 1008.9 |
| 20260506034016 | 8 | 338 | 3.2 | 8.0 | 0.15 | 2.26 | 2.26 | 92 | 1008.9 |
| 20260506033516 | 8 | 315 | 3.2 | 11.3 | 0.15 | 2.24 | 2.24 | 92 | 1008.9 |
| 20260506033016 | 8 | 315 | 3.2 | 8.0 | 0.15 | 2.24 | 2.24 | 92 | 1009.0 |
| 20260506032516 | 8 | 45 | 1.6 | 6.4 | 0.15 | 2.21 | 2.21 | 92 | 1008.9 |
| 20260506032036 | 8 | 293 | 1.6 | 3.2 | 0.15 | 2.21 | 2.21 | 92 | 1008.9 |
| 20260506031516 | 8 | 293 | 3.2 | 6.4 | 0.15 | 2.18 | 2.18 | 92 | 1009.0 |
| 20260506031016 | 8 | 45 | 1.6 | 4.8 | 0.18 | 2.18 | 2.18 | 92 | 1008.9 |
| 20260506030516 | 8 | 293 | 3.2 | 6.4 | 0.15 | 2.16 | 2.16 | 92 | 1008.9 |
| 20260506030016 | 8 | 45 | 1.6 | 9.7 | 0.18 | 2.16 | 2.16 | 92 | 1008.8 |
| 20260506025617 | 8 | 23 | 1.6 | 8.0 | 0.23 | 2.13 | 2.13 | 92 | 1008.9 |
| 20260506025016 | 8 | 0.0 | 3.2 | 0.28 | 2.13 | 2.13 | 92 | 1009.1 | |
| 20260506024516 | 8 | 45 | 1.6 | 8.0 | 0.33 | 2.13 | 2.13 | 92 | 1009.2 |
| 20260506024016 | 8 | 0 | 1.6 | 6.4 | 0.36 | 2.11 | 2.11 | 92 | 1009.5 |
| 20260506023536 | 8 | 0 | 1.6 | 6.4 | 0.38 | 2.08 | 2.08 | 92 | 1009.4 |
| 20260506023036 | 8 | 23 | 3.2 | 9.7 | 0.41 | 2.08 | 2.08 | 92 | 1009.2 |
| 20260506022536 | 8 | 158 | 3.2 | 8.0 | 0.46 | 2.06 | 2.06 | 92 | 1009.0 |
| 20260506022016 | 8 | 45 | 4.8 | 8.0 | 0.51 | 2.06 | 2.06 | 92 | 1008.9 |
| 20260506021516 | 8 | 293 | 1.6 | 6.4 | 0.56 | 2.03 | 2.03 | 92 | 1008.8 |
| 20260506021016 | 8 | 68 | 1.6 | 6.4 | 0.56 | 2.01 | 2.01 | 92 | 1008.5 |
| 20260506020516 | 8 | 45 | 3.2 | 8.0 | 0.64 | 2.01 | 2.01 | 92 | 1008.4 |
| 20260506020056 | 8 | 23 | 1.6 | 4.8 | 0.71 | 1.98 | 1.98 | 92 | 1008.4 |
| 20260506015516 | 9 | 45 | 3.2 | 8.0 | 0.69 | 1.91 | 1.91 | 92 | 1008.3 |
| 20260506015016 | 9 | 68 | 4.8 | 9.7 | 0.69 | 1.85 | 1.85 | 92 | 1008.2 |
| 20260506014516 | 9 | 45 | 4.8 | 11.3 | 0.69 | 1.80 | 1.80 | 92 | 1008.1 |
| 20260506014016 | 9 | 23 | 1.6 | 6.4 | 0.66 | 1.75 | 1.73 | 92 | 1008.2 |
| 20260506013516 | 9 | 338 | 3.2 | 8.0 | 0.64 | 1.70 | 1.70 | 92 | 1008.1 |
| 20260506013016 | 9 | 0 | 1.6 | 4.8 | 0.64 | 1.68 | 1.65 | 91 | 1008.0 |
| 20260506012516 | 10 | 315 | 4.8 | 11.3 | 0.56 | 1.60 | 1.60 | 91 | 1008.0 |
| 20260506012036 | 10 | 23 | 1.6 | 6.4 | 0.53 | 1.55 | 1.55 | 92 | 1008.0 |
| 20260506011516 | 10 | 45 | 1.6 | 4.8 | 0.46 | 1.47 | 1.47 | 92 | 1007.9 |
| 20260506011016 | 10 | 315 | 3.2 | 8.0 | 0.43 | 1.45 | 1.45 | 92 | 1007.8 |
| 20260506010516 | 10 | 45 | 3.2 | 6.4 | 0.38 | 1.37 | 1.37 | 92 | 1007.8 |
| 20260506010016 | 10 | 68 | 3.2 | 11.3 | 0.28 | 1.27 | 1.27 | 92 | 1007.6 |
| 20260506005516 | 10 | 45 | 4.8 | 9.7 | 0.23 | 1.22 | 1.22 | 92 | 1007.5 |
| 20260506005016 | 10 | 45 | 6.4 | 14.5 | 0.18 | 1.17 | 1.17 | 92 | 1007.5 |
| 20260506004536 | 10 | 68 | 1.6 | 4.8 | 0.13 | 1.12 | 1.12 | 92 | 1007.5 |
| 20260506004036 | 10 | 45 | 3.2 | 8.0 | 0.10 | 1.09 | 1.09 | 92 | 1007.6 |
| 20260506003516 | 10 | 45 | 1.6 | 4.8 | 0.08 | 1.07 | 1.07 | 91 | 1007.6 |
| 20260506003015 | 10 | 45 | 1.6 | 8.0 | 0.08 | 1.04 | 1.04 | 91 | 1007.5 |
| 20260506002516 | 10 | 45 | 1.6 | 6.4 | 0.13 | 1.04 | 1.04 | 91 | 1007.5 |
| 20260506002016 | 10 | 45 | 1.6 | 6.4 | 0.10 | 1.02 | 1.02 | 91 | 1007.5 |
| 20260506001515 | 11 | 45 | 3.2 | 8.0 | 0.15 | 1.02 | 1.02 | 91 | 1007.6 |
| 20260506001036 | 11 | 45 | 1.6 | 4.8 | 0.18 | 1.02 | 1.02 | 90 | 1007.6 |
| 20260506000515 | 11 | 23 | 3.2 | 6.4 | 0.18 | 0.99 | 0.99 | 90 | 1007.5 |
| 20260506000036 | 11 | 45 | 3.2 | 9.7 | 0.23 | 0.99 | 0.99 | 90 | 1007.5 |
| 20260505235515 | 11 | 0 | 1.6 | 4.8 | 0.25 | 0.99 | 0.99 | 90 | 1007.5 |
| 20260505235015 | 11 | 0 | 1.6 | 4.8 | 0.36 | 0.99 | 0.99 | 89 | 1007.4 |
| 20260505234535 | 11 | 45 | 3.2 | 6.4 | 0.66 | 0.99 | 0.99 | 90 | 1007.6 |
| 20260505234036 | 12 | 0 | 4.8 | 8.0 | 0.81 | 0.99 | 0.99 | 90 | 1007.7 |
| 20260505233516 | 12 | 338 | 4.8 | 12.9 | 0.89 | 0.99 | 0.99 | 91 | 1007.8 |
| 20260505233016 | 12 | 0.0 | 3.2 | 0.91 | 0.97 | 0.97 | 92 | 1007.9 | |
| 20260505232516 | 12 | 0.0 | 3.2 | 0.89 | 0.91 | 0.91 | 92 | 1007.9 | |
| 20260505232016 | 12 | 315 | 1.6 | 3.2 | 0.89 | 0.91 | 0.91 | 92 | 1007.9 |
| 20260505231516 | 12 | 315 | 1.6 | 6.4 | 0.84 | 0.86 | 0.86 | 92 | 1008.0 |
| 20260505231016 | 12 | 0 | 3.2 | 12.9 | 0.81 | 0.84 | 0.84 | 92 | 1007.9 |
| 20260505230516 | 12 | 270 | 4.8 | 11.3 | 0.79 | 0.81 | 0.81 | 92 | 1008.0 |
| 20260505230036 | 12 | 293 | 4.8 | 9.7 | 0.74 | 0.76 | 0.76 | 91 | 1007.9 |
| 20260505225516 | 12 | 270 | 6.4 | 12.9 | 0.71 | 0.74 | 0.74 | 91 | 1008.0 |
| 20260505225056 | 13 | 293 | 6.4 | 12.9 | 0.61 | 0.64 | 0.64 | 91 | 1007.9 |
| 20260505224516 | 13 | 270 | 9.7 | 16.1 | 0.30 | 0.33 | 0.33 | 91 | 1008.7 |
| 20260505224016 | 13 | 293 | 8.0 | 17.7 | 0.15 | 0.18 | 0.18 | 90 | 1007.8 |
| 20260505223516 | 13 | 293 | 3.2 | 8.0 | 0.08 | 0.10 | 0.10 | 90 | 1007.8 |
| 20260505223036 | 13 | 293 | 1.6 | 4.8 | 0.03 | 0.05 | 0.05 | 89 | 1007.6 |
| 20260505222516 | 13 | 293 | 1.6 | 3.2 | 0.00 | 0.03 | 0.03 | 89 | 1007.5 |
| 20260505222036 | 13 | 293 | 1.6 | 6.4 | 0.00 | 0.03 | 0.03 | 89 | 1007.6 |
| 20260505221516 | 13 | 293 | 4.8 | 11.3 | 0.00 | 0.03 | 0.03 | 88 | 1007.7 |
| 20260505221016 | 13 | 315 | 1.6 | 4.8 | 0.00 | 0.03 | 0.03 | 88 | 1007.5 |
| 20260505220535 | 13 | 293 | 4.8 | 9.7 | 0.00 | 0.03 | 0.03 | 88 | 1007.6 |
| 20260505220035 | 13 | 293 | 4.8 | 11.3 | 0.00 | 0.03 | 0.03 | 87 | 1007.8 |
| 20260505215515 | 13 | 315 | 3.2 | 11.3 | 0.00 | 0.03 | 0.03 | 88 | 1007.8 |
| 20260505215016 | 13 | 315 | 1.6 | 8.0 | 0.00 | 0.03 | 0.03 | 88 | 1007.8 |
| 20260505214535 | 13 | 315 | 3.2 | 6.4 | 0.00 | 0.03 | 0.03 | 89 | 1007.9 |
| 20260505214016 | 13 | 315 | 3.2 | 4.8 | 0.00 | 0.03 | 0.03 | 88 | 1007.9 |
| 20260505213515 | 13 | 293 | 4.8 | 9.7 | 0.00 | 0.03 | 0.03 | 88 | 1007.9 |
| 20260505213016 | 13 | 293 | 4.8 | 6.4 | 0.00 | 0.03 | 0.03 | 88 | 1007.9 |
| 20260505212515 | 13 | 293 | 4.8 | 11.3 | 0.00 | 0.03 | 0.03 | 88 | 1007.9 |
| 20260505212036 | 13 | 293 | 3.2 | 6.4 | 0.00 | 0.03 | 0.03 | 88 | 1007.9 |
| 20260505211515 | 13 | 315 | 3.2 | 6.4 | 0.00 | 0.03 | 0.03 | 88 | 1007.7 |
| 20260505211016 | 13 | 315 | 1.6 | 3.2 | 0.03 | 0.03 | 0.03 | 88 | 1007.8 |
| 20260505210515 | 13 | 293 | 3.2 | 6.4 | 0.03 | 0.03 | 0.03 | 88 | 1007.8 |
| 20260505210015 | 13 | 270 | 1.6 | 4.8 | 0.03 | 0.03 | 0.03 | 88 | 1007.9 |
| 20260505205516 | 13 | 270 | 1.6 | 6.4 | 0.03 | 0.03 | 0.03 | 88 | 1008.0 |
| 20260505205016 | 13 | 315 | 3.2 | 9.7 | 0.03 | 0.03 | 0.03 | 87 | 1008.2 |
| 20260505204515 | 14 | 315 | 1.6 | 3.2 | 0.03 | 0.03 | 0.03 | 86 | 1007.8 |
| 20260505204035 | 14 | 0.0 | 3.2 | 0.03 | 0.03 | 0.03 | 86 | 1007.9 | |
| 20260505203516 | 14 | 315 | 3.2 | 6.4 | 0.03 | 0.03 | 0.03 | 86 | 1008.0 |
| 20260505203016 | 14 | 293 | 4.8 | 14.5 | 0.03 | 0.03 | 0.03 | 85 | 1008.1 |
| 20260505202535 | 15 | 293 | 4.8 | 8.0 | 0.03 | 0.03 | 0.03 | 84 | 1008.0 |
| 20260505202016 | 15 | 315 | 4.8 | 12.9 | 0.03 | 0.03 | 0.03 | 82 | 1007.9 |
| 20260505201515 | 15 | 270 | 9.7 | 17.7 | 0.03 | 0.03 | 0.03 | 79 | 1008.0 |
| 20260505201015 | 16 | 270 | 12.9 | 20.9 | 0.00 | 0.00 | 0.00 | 76 | 1008.0 |
| 20260505200516 | 16 | 270 | 9.7 | 17.7 | 0.00 | 0.00 | 0.00 | 73 | 1007.7 |
| 20260505200015 | 17 | 203 | 6.4 | 17.7 | 0.00 | 0.00 | 0.00 | 72 | 1007.9 |
| 20260505195515 | 17 | 203 | 3.2 | 11.3 | 0.00 | 0.00 | 0.00 | 72 | 1007.8 |
| 20260505195015 | 17 | 248 | 1.6 | 4.8 | 0.00 | 0.00 | 0.00 | 72 | 1007.9 |
| 20260505194515 | 17 | 203 | 1.6 | 4.8 | 0.00 | 0.00 | 0.00 | 71 | 1007.9 |
| 20260505194017 | 17 | 203 | 1.6 | 3.2 | 0.00 | 0.00 | 0.00 | 70 | 1008.0 |
| 20260505193537 | 17 | 203 | 1.6 | 6.4 | 0.00 | 0.00 | 0.00 | 70 | 1008.0 |
| 20260505193017 | 17 | 203 | 1.6 | 4.8 | 0.00 | 0.00 | 0.00 | 71 | 1008.0 |
| 20260505192517 | 17 | 203 | 1.6 | 3.2 | 0.00 | 0.00 | 0.00 | 70 | 1008.0 |
| 20260505192017 | 17 | 203 | 1.6 | 4.8 | 0.00 | 0.00 | 0.00 | 70 | 1008.0 |
| 20260505191517 | 17 | 203 | 1.6 | 4.8 | 0.00 | 0.00 | 0.00 | 71 | 1008.0 |
| 20260505191017 | 17 | 203 | 1.6 | 3.2 | 0.00 | 0.00 | 0.00 | 70 | 1008.1 |
| 20260505190517 | 17 | 203 | 1.6 | 4.8 | 0.00 | 0.00 | 0.00 | 71 | 1008.2 |
| 20260505190017 | 17 | 203 | 1.6 | 4.8 | 0.00 | 0.00 | 0.00 | 71 | 1008.2 |
| 20260505185517 | 17 | 180 | 1.6 | 6.4 | 0.00 | 0.00 | 0.00 | 72 | 1008.3 |
| 20260505185017 | 16 | 225 | 1.6 | 4.8 | 0.00 | 0.00 | 0.00 | 74 | 1008.2 |
| 20260505184517 | 16 | 0.0 | 3.2 | 0.00 | 0.00 | 0.00 | 72 | 1008.4 | |
| 20260505184017 | 16 | 203 | 1.6 | 4.8 | 0.00 | 0.00 | 0.00 | 72 | 1008.5 |
| 20260505183517 | 16 | 225 | 1.6 | 9.7 | 0.00 | 0.00 | 0.00 | 71 | 1008.6 |
| 20260505183017 | 16 | 203 | 1.6 | 6.4 | 0.00 | 0.00 | 0.00 | 71 | 1008.6 |
| 20260505182517 | 16 | 225 | 1.6 | 8.0 | 0.00 | 0.00 | 0.00 | 71 | 1008.6 |
| 20260505182017 | 16 | 203 | 3.2 | 8.0 | 0.00 | 0.00 | 0.00 | 71 | 1008.7 |
| 20260505181517 | 16 | 270 | 3.2 | 6.4 | 0.00 | 0.00 | 0.00 | 71 | 1008.6 |
| 20260505181017 | 16 | 270 | 3.2 | 9.7 | 0.00 | 0.00 | 0.00 | 69 | 1008.6 |
| 20260505180517 | 16 | 225 | 4.8 | 12.9 | 0.00 | 0.00 | 0.00 | 69 | 1008.5 |
| 20260505180017 | 16 | 248 | 4.8 | 14.5 | 0.00 | 0.00 | 0.00 | 70 | 1008.4 |
| 20260505175515 | 16 | 270 | 4.8 | 11.3 | 0.00 | 0.00 | 0.00 | 69 | 1008.4 |
| 20260505175017 | 17 | 270 | 6.4 | 20.9 | 0.00 | 0.00 | 0.00 | 68 | 1008.3 |
| 20260505174517 | 17 | 270 | 6.4 | 16.1 | 0.00 | 0.00 | 0.00 | 67 | 1008.3 |
| 20260505174017 | 17 | 270 | 11.3 | 29.0 | 0.00 | 0.00 | 0.00 | 66 | 1008.3 |
| 20260505173517 | 17 | 293 | 11.3 | 22.5 | 0.00 | 0.00 | 0.00 | 66 | 1008.2 |
| 20260505173017 | 17 | 293 | 8.0 | 20.9 | 0.00 | 0.00 | 0.00 | 66 | 1008.3 |
| 20260505172517 | 17 | 248 | 8.0 | 22.5 | 0.00 | 0.00 | 0.00 | 66 | 1008.4 |
| 20260505172017 | 17 | 293 | 6.4 | 17.7 | 0.00 | 0.00 | 0.00 | 67 | 1008.3 |
| 20260505171537 | 17 | 270 | 11.3 | 29.0 | 0.00 | 0.00 | 0.00 | 64 | 1008.2 |
| 20260505171017 | 18 | 270 | 9.7 | 27.4 | 0.00 | 0.00 | 0.00 | 63 | 1008.2 |
| 20260505170517 | 18 | 270 | 8.0 | 16.1 | 0.00 | 0.00 | 0.00 | 63 | 1008.2 |
| 20260505170017 | 18 | 270 | 9.7 | 19.3 | 0.00 | 0.00 | 0.00 | 63 | 1008.2 |
| 20260505165517 | 18 | 270 | 6.4 | 17.7 | 0.00 | 0.00 | 0.00 | 63 | 1008.2 |
| 20260505165037 | 18 | 270 | 11.3 | 27.4 | 0.00 | 0.00 | 0.00 | 61 | 1008.1 |
| 20260505164537 | 18 | 270 | 9.7 | 32.2 | 0.00 | 0.00 | 0.00 | 63 | 1008.1 |
| 20260505164017 | 18 | 270 | 8.0 | 20.9 | 0.00 | 0.00 | 0.00 | 62 | 1008.1 |
| 20260505163517 | 18 | 203 | 6.4 | 22.5 | 0.00 | 0.00 | 0.00 | 61 | 1008.1 |
| 20260505163037 | 18 | 270 | 9.7 | 24.1 | 0.00 | 0.00 | 0.00 | 62 | 1008.1 |
| 20260505162517 | 18 | 270 | 6.4 | 16.1 | 0.00 | 0.00 | 0.00 | 61 | 1008.1 |
| 20260505162017 | 18 | 248 | 6.4 | 16.1 | 0.00 | 0.00 | 0.00 | 62 | 1008.3 |
| 20260505161557 | 18 | 270 | 4.8 | 12.9 | 0.00 | 0.00 | 0.00 | 61 | 1008.2 |
| 20260505161017 | 18 | 180 | 4.8 | 16.1 | 0.00 | 0.00 | 0.00 | 59 | 1008.1 |
| 20260505160517 | 19 | 248 | 6.4 | 20.9 | 0.00 | 0.00 | 0.00 | 59 | 1008.1 |
| 20260505153017 | 20 | 180 | 6.4 | 16.1 | 0.00 | 0.00 | 0.00 | 61 | 1007.5 |
| 20260505152517 | 19 | 248 | 6.4 | 20.9 | 0.00 | 0.00 | 0.00 | 63 | 1007.2 |
| 20260505152017 | 19 | 180 | 8.0 | 25.7 | 0.00 | 0.00 | 0.00 | 68 | 1007.3 |
| 20260505151537 | 18 | 180 | 9.7 | 20.9 | 0.00 | 0.00 | 0.00 | 63 | 1007.5 |
| 20260505151017 | 18 | 248 | 4.8 | 12.9 | 0.00 | 0.00 | 0.00 | 64 | 1007.6 |
| 20260505150537 | 18 | 248 | 4.8 | 14.5 | 0.00 | 0.00 | 0.00 | 65 | 1007.5 |
| 20260505140517 | 17 | 203 | 9.7 | 25.7 | 0.00 | 0.00 | 0.00 | 66 | 1007.3 |